Location: Bakhuizen
(52.8696°N, 5.4575°E)
Time: 03:57:40
(UTC+00:00)

ATLAS CENTAUR R/B - Pass Details

Date: 11 May 2021
Orbit: 472 x 671 km, 64.6° (Epoch: 13 June)

Event Time Altitude Azimuth Distance (km) Brightness Sun altitude
Exits shadow 23:38:19 32° 116° (ESE) 858 2.0 -19.0°
Drops below altitude 10° 23:41:34 10° 58° (ENE) 1,720 4.3 -19.0°
Sets 23:43:55 0° 49° (NE) 2,640 5.5 -19.0°
